Weather History for Ogden Hill AFB, UT

Change the Weather History Date:

Monday, March 3, 2014

  Actual Average Record
Temperature  
Mean Temperature 48 °F -  
Max Temperature 54 °F 39 °F 63 °F (2009)
Min Temperature 42 °F 24 °F 7 °F (2007)
Degree Days  
Heating Degree Days 17    
Moisture  
Dew Point 24 °F    
Average Humidity 39    
Maximum Humidity 57    
Minimum Humidity 26    
Precipitation  
Precipitation 0.00 in - - ()
Sea Level Pressure  
Sea Level Pressure 29.99 in    
Wind  
Wind Speed 7 mph (SW)    
Max Wind Speed 13 mph    
Max Gust Speed -    
Visibility 10 miles    
Events      
Averages and records for this station are not official NWS values.
T = Trace of Precipitation, MM = Missing Value Source: NWS Daily Summary

Daily Weather History Graph

Daily Weather History Graph

Search for Another Location

Airport:

Trip Planner

Search our weather history database for the weather conditions in past years. The results will help you decide how hot, cold, wet, or windy it might be!

Date:

Astronomy

Mar. 03, 2014 Rise Set
Actual Time 6:58 AM MST 6:21 PM MST
Civil Twilight 6:31 AM MST 6:48 PM MST
Nautical Twilight 5:59 AM MST 7:20 PM MST
Astronomical Twilight 5:27 AM MST 7:52 PM MST
Moon 8:07 AM MST (3/3) 9:30 PM MST (3/3)
Length of Visible Light 12h 17m
Length of Day
11h 22m
Waxing Crescent, 8% of the Moon is Illuminated
Mar 3
Waxing Crescent
Mar 8
First Quarter
Mar 16
Full
Mar 23
Last Quarter
Mar 30
New

Hourly Weather History & Observations

Time (MST) Temp. Windchill Dew Point Humidity Pressure Visibility Wind Dir Wind Speed Gust Speed Precip Events Conditions
12:13 AM 44.6 °F 40.2 °F 26.6 °F 49% 30.03 in 10.0 mi South 8.1 mph - N/A   Mostly Cloudy
12:18 AM 44.6 °F 39.7 °F 26.6 °F 49% 30.03 in 10.0 mi SSE 9.2 mph - N/A   Mostly Cloudy
12:58 AM 45.1 °F 40.8 °F 25.3 °F 46% 29.97 in 10.0 mi South 8.1 mph - N/A   Overcast
1:58 AM 44.8 °F 40.4 °F 25.9 °F 48% 29.99 in 10.0 mi South 8.1 mph - N/A   Overcast
2:58 AM 45.1 °F 39.9 °F 25.2 °F 46% 29.99 in 10.0 mi SW 10.4 mph - N/A   Overcast
3:58 AM 43.9 °F 39.3 °F 27.3 °F 52% 29.98 in 10.0 mi SW 8.1 mph - N/A   Overcast
4:58 AM 43.9 °F 41.3 °F 27.1 °F 52% 30.00 in 10.0 mi SW 4.6 mph - N/A   Overcast
5:58 AM 42.6 °F 40.9 °F 28.2 °F 57% 30.02 in 10.0 mi SW 3.5 mph - N/A   Overcast
6:58 AM 42.6 °F - 27.7 °F 56% 30.05 in 10.0 mi SSW 2.3 mph - N/A   Overcast
7:58 AM 43.7 °F 39.1 °F 27.1 °F 52% 30.06 in 10.0 mi South 8.1 mph - N/A   Mostly Cloudy
8:58 AM 44.6 °F 38.8 °F 26.8 °F 50% 30.05 in 10.0 mi South 11.5 mph - N/A   Scattered Clouds
9:58 AM 48.0 °F - 26.8 °F 44% 30.04 in 10.0 mi SSE 6.9 mph - N/A   Clear
10:58 AM 51.4 °F - 23.7 °F 34% 30.02 in 10.0 mi South 12.7 mph - N/A   Clear
11:58 AM 53.6 °F - 22.6 °F 30% 30.02 in 10.0 mi South 10.4 mph - N/A   Scattered Clouds
12:03 PM 53.6 °F - 23.0 °F 30% 30.09 in 10.0 mi South 9.2 mph - N/A   Mostly Cloudy
12:58 PM 52.9 °F - 21.4 °F 29% 30.00 in 10.0 mi SW 8.1 mph - N/A   Mostly Cloudy
1:58 PM 54.5 °F - 21.0 °F 27% 29.98 in 10.0 mi South 12.7 mph - N/A   Mostly Cloudy
2:58 PM 53.4 °F - 21.9 °F 29% 29.96 in 10.0 mi West 8.1 mph - N/A   Mostly Cloudy
3:58 PM 54.5 °F - 19.8 °F 26% 29.94 in 10.0 mi WSW 8.1 mph - N/A   Mostly Cloudy
4:58 PM 53.1 °F - 20.8 °F 28% 29.93 in 10.0 mi WSW 4.6 mph - N/A   Overcast
5:23 PM 51.8 °F - 23.0 °F 33% 30.01 in 10.0 mi West 8.1 mph - N/A   Overcast
5:58 PM 51.4 °F - 23.5 °F 34% 29.95 in 10.0 mi WNW 3.5 mph - N/A   Overcast
6:58 PM 50.9 °F - 20.8 °F 31% 29.95 in 10.0 mi Calm Calm - N/A   Overcast
7:58 PM 50.5 °F - 24.1 °F 36% 29.95 in 10.0 mi North 4.6 mph - N/A   Overcast
8:33 PM 50.0 °F - 23.0 °F 35% 30.01 in 10.0 mi Variable 2.3 mph - N/A   Scattered Clouds
8:58 PM 49.8 °F - 22.6 °F 34% 29.95 in 10.0 mi NNE 3.5 mph - N/A   Mostly Cloudy
9:18 PM 50.0 °F - 23.0 °F 35% 30.00 in 10.0 mi NNE 3.5 mph - N/A   Scattered Clouds
9:43 PM 50.0 °F - 21.2 °F 32% 30.00 in 10.0 mi North 3.5 mph - N/A   Mostly Cloudy
9:58 PM 50.0 °F - 22.1 °F 33% 29.93 in 10.0 mi ENE 2.3 mph - N/A   Overcast
10:58 PM 49.8 °F - 22.6 °F 34% 29.91 in 10.0 mi NNW 4.6 mph - N/A   Overcast
11:48 PM 48.2 °F - 24.8 °F 40% 29.98 in 10.0 mi North 8.1 mph - N/A   Mostly Cloudy
11:53 PM 48.2 °F - 24.8 °F 40% 29.98 in 10.0 mi North 8.1 mph - N/A   Scattered Clouds
11:58 PM 48.2 °F - 25.5 °F 41% 29.90 in 10.0 mi North 6.9 mph - N/A   Scattered Clouds